This is the latest recevied weather packets stored in our database for station/object KD9IXX-13. If no packets are shown the sender has not sent any weather packets the latest 10 day(s).
| Time | Temp. | Humidity | Pressure | Rain* | Wind** | Luminosity | Snow |
|---|---|---|---|---|---|---|---|
| 1787988002 | 17.78° C | 90% | 1022.1 hPa | 0 mm | - | 0 W/m² | - |
| 1787987702 | 17.78° C | 89% | 1022.1 hPa | 0 mm | - | 0 W/m² | - |
| 1787987102 | 17.78° C | 90% | 1021.8 hPa | 0 mm | - | 0 W/m² | - |
| 1787986501 | 17.78° C | 89% | 1022 hPa | 0 mm | - | 0 W/m² | - |
| 1787985902 | 17.78° C | 88% | 1021.9 hPa | 0 mm | - | 0 W/m² | - |
| 1787985602 | 18.33° C | 87% | 1021.8 hPa | 0 mm | - | 0 W/m² | - |
| 1787983501 | 18.33° C | 86% | 1022 hPa | 0 mm | - | 0 W/m² | - |
| 1787982902 | 18.33° C | 88% | 1022 hPa | 0 mm | - | 0 W/m² | - |
| 1787982602 | 18.33° C | 88% | 1022.1 hPa | 0 mm | - | 0 W/m² | - |
| 1787982002 | 18.33° C | 88% | 1022.2 hPa | 0 mm | - | 0 W/m² | - |
| 1787981102 | 17.78° C | 91% | 1022.3 hPa | 0 mm | - | 0 W/m² | - |
| 1787980202 | 17.78° C | 91% | 1022.3 hPa | 0 mm | - | 0 W/m² | - |
| 1787978402 | 18.33° C | 90% | 1021.9 hPa | 0 mm | - | 0 W/m² | - |
| 1787978104 | 17.78° C | 92% | 1022 hPa | 0 mm | - | 0 W/m² | - |
| 1787977802 | 17.78° C | 92% | 1021.7 hPa | 0 mm | - | 0 W/m² | - |
| 1787977502 | 17.78° C | 92% | 1021.9 hPa | 0 mm | - | 0 W/m² | - |
| 1787977202 | 17.78° C | 92% | 1022 hPa | 0 mm | - | 0 W/m² | - |
| 1787976602 | 17.78° C | 93% | 1021.7 hPa | 0 mm | - | 0 W/m² | - |
| 1787976002 | 17.78° C | 92% | 1021.8 hPa | 0 mm | - | 0 W/m² | - |
| 1787975401 | 17.78° C | 92% | 1021.8 hPa | 0 mm | - | 0 W/m² | - |
| 1787975102 | 17.78° C | 94% | 1021.8 hPa | 0 mm | - | 0 W/m² | - |
| 1787969702 | 18.33° C | 90% | 1021.4 hPa | 0 mm | - | 0 W/m² | - |
| 1787968802 | 18.89° C | 89% | 1021.4 hPa | 0 mm | - | 0 W/m² | - |
| 1787968502 | 19.44° C | 89% | 1021.4 hPa | 0 mm | - | 0 W/m² | - |
| 1787967902 | 19.44° C | 87% | 1021.3 hPa | 0 mm | - | 0 W/m² | - |
* Rain latest hour (hover to see other rain measurements)
** Current wind speed in m/s (hover to see current wind gust speed)